Change the Weather History Date:

Friday, September 13, 2013

  Actual Average (KLBT) Record (KLBT)
Temperature  
Mean Temperature 78 °F 74 °F  
Max Temperature 88 °F 85 °F 90 °F (2000)
Min Temperature 69 °F 63 °F 57 °F (1999)
Degree Days  
Heating Degree Days 0 0  
Month to date heating degree days 0  
Since 1 July heating degree days 0  
Cooling Degree Days 14 9  
Month to date cooling degree days 134  
Year to date cooling degree days 1706  
Growing Degree Days 28 (Base 50)    
Moisture  
Dew Point 67 °F    
Average Humidity 71    
Maximum Humidity 91    
Minimum Humidity 42    
Precipitation  
Precipitation 0.00 in 0.16 in 0.76 in (2014)
Month to date precipitation 2.20  
Year to date precipitation 32.59  
Sea Level Pressure  
Sea Level Pressure 29.80 in    
Wind  
Wind Speed 3 mph (West)    
Max Wind Speed 6 mph    
Max Gust Speed -    
Visibility 10 miles    
Events      
T = Trace of Precipitation, MM = Missing Value Source: NWS Daily Summary

Daily Weather History Graph

Daily Weather History Graph

Search for Another Location

Airport or City:

Trip Planner

Search our weather history database for the weather conditions in past years. The results will help you decide how hot, cold, wet, or windy it might be!

Date:

Astronomy

Sep. 13, 2013 Rise Set
Actual Time 6:56 AM EDT 7:24 PM EDT
Civil Twilight 6:31 AM EDT 7:49 PM EDT
Nautical Twilight 6:01 AM EDT 8:18 PM EDT
Astronomical Twilight 5:31 AM EDT 8:48 PM EDT
Moon 3:01 PM EDT (9/13) 12:35 AM EDT (9/13)
Length of Visible Light 13h 17m
Length of Day
12h 27m
First Quarter, 61% of the Moon is Illuminated
Sep 13
First Quarter
Sep 19
Full
Sep 26
Last Quarter
Oct 4
New
Oct 11
First Quarter

Hourly Weather History & Observations

Time (EDT) Temp. Heat Index Dew Point Humidity Pressure Visibility Wind Dir Wind Speed Gust Speed Precip Events Conditions
12:15 AM 75.2 °F - 68.9 °F 81% 29.85 in 10.0 mi SSW 5.8 mph - N/A   Clear
12:35 AM 74.8 °F - 68.9 °F 82% 29.84 in 10.0 mi SSW 5.8 mph - N/A   Clear
12:55 AM 74.3 °F - 68.9 °F 83% 29.84 in 10.0 mi SSW 4.6 mph - N/A   Clear
1:15 AM 73.8 °F - 68.9 °F 85% 29.83 in 10.0 mi SSW 4.6 mph - N/A   Clear
1:35 AM 73.6 °F - 68.9 °F 85% 29.83 in 10.0 mi SSW 4.6 mph - N/A   Clear
1:55 AM 73.4 °F - 69.1 °F 86% 29.82 in 10.0 mi SSW 4.6 mph - N/A   Scattered Clouds
2:15 AM 74.3 °F - 69.1 °F 84% 29.82 in 10.0 mi SW 4.6 mph - N/A   Mostly Cloudy
2:35 AM 73.9 °F - 68.9 °F 84% 29.81 in 10.0 mi SW 3.5 mph - N/A   Scattered Clouds
2:55 AM 73.9 °F - 68.9 °F 84% 29.80 in 10.0 mi SW 4.6 mph - N/A   Clear
3:15 AM 72.9 °F - 68.9 °F 87% 29.79 in 10.0 mi SSW 4.6 mph - N/A   Clear
3:35 AM 73.0 °F - 68.9 °F 87% 29.79 in 10.0 mi SSW 3.5 mph - N/A   Clear
3:55 AM 73.4 °F - 68.9 °F 86% 29.79 in 10.0 mi SW 3.5 mph - N/A   Clear
4:15 AM 73.0 °F - 68.9 °F 87% 29.79 in 10.0 mi Calm Calm - N/A   Clear
4:35 AM 73.0 °F - 68.9 °F 87% 29.79 in 10.0 mi SW 4.6 mph - N/A   Clear
4:55 AM 72.7 °F - 68.9 °F 88% 29.79 in 10.0 mi Calm Calm - N/A   Clear
5:15 AM 72.5 °F - 68.9 °F 88% 29.79 in 10.0 mi SW 3.5 mph - N/A   Clear
5:35 AM 72.5 °F - 68.9 °F 88% 29.79 in 10.0 mi SW 3.5 mph - N/A   Clear
5:55 AM 72.1 °F - 68.9 °F 89% 29.79 in 10.0 mi Calm Calm - N/A   Clear
6:15 AM 71.8 °F - 68.7 °F 90% 29.80 in 10.0 mi SW 4.6 mph - N/A   Clear
6:35 AM 71.8 °F - 68.9 °F 91% 29.80 in 10.0 mi Calm Calm - N/A   Mostly Cloudy
6:55 AM 72.0 °F - 68.9 °F 90% 29.80 in 10.0 mi SW 3.5 mph - N/A   Overcast
7:15 AM 72.0 °F - 68.9 °F 90% 29.80 in 10.0 mi SSW 3.5 mph - N/A   Mostly Cloudy
7:35 AM 72.3 °F - 68.9 °F 89% 29.80 in 10.0 mi SW 4.6 mph - N/A   Mostly Cloudy
7:55 AM 72.5 °F - 68.9 °F 88% 29.80 in 7.0 mi Calm Calm - N/A   Scattered Clouds
8:15 AM 72.5 °F - 69.1 °F 89% 29.80 in 10.0 mi SW 3.5 mph - N/A   Scattered Clouds
8:35 AM 72.7 °F - 69.1 °F 88% 29.81 in 7.0 mi WSW 3.5 mph - N/A   Clear
8:55 AM 73.8 °F - 69.4 °F 86% 29.81 in 10.0 mi Calm Calm - N/A   Clear
9:15 AM 74.5 °F - 69.6 °F 85% 29.82 in 10.0 mi Calm Calm - N/A   Clear
9:35 AM 75.2 °F - 69.4 °F 82% 29.82 in 10.0 mi WNW 4.6 mph - N/A   Clear
9:55 AM 77.2 °F - 69.6 °F 77% 29.82 in 10.0 mi NW 5.8 mph - N/A   Clear
10:15 AM 79.0 °F - 69.6 °F 73% 29.82 in 10.0 mi NNW 3.5 mph - N/A   Clear
10:35 AM 80.4 °F 83.4 °F 68.9 °F 68% 29.81 in 10.0 mi North 3.5 mph - N/A   Clear
10:55 AM 81.1 °F 84.0 °F 68.5 °F 65% 29.81 in 10.0 mi Calm Calm - N/A   Clear
11:15 AM 82.2 °F 85.5 °F 68.7 °F 64% 29.81 in 10.0 mi NE 3.5 mph - N/A   Clear
11:35 AM 83.3 °F 86.4 °F 68.0 °F 60% 29.81 in 10.0 mi Calm Calm - N/A   Clear
11:55 AM 83.5 °F 86.2 °F 67.5 °F 58% 29.81 in 10.0 mi NNE 4.6 mph - N/A   Clear
12:15 PM 84.0 °F 86.8 °F 67.5 °F 57% 29.80 in 10.0 mi NW 4.6 mph - N/A   Clear
12:35 PM 84.9 °F 88.2 °F 68.0 °F 57% 29.80 in 10.0 mi NNE 5.8 mph - N/A   Scattered Clouds
12:55 PM 85.6 °F 88.5 °F 67.5 °F 54% 29.79 in 7.0 mi Calm Calm - N/A   Scattered Clouds
1:15 PM 85.5 °F 87.6 °F 65.8 °F 52% 29.79 in 10.0 mi West 4.6 mph - N/A   Clear
1:35 PM 86.5 °F 89.0 °F 66.6 °F 51% 29.78 in 10.0 mi WNW 4.6 mph - N/A   Scattered Clouds
1:55 PM 85.8 °F 87.9 °F 66.0 °F 51% 29.77 in 10.0 mi Calm Calm - N/A   Scattered Clouds
2:15 PM 87.6 °F 90.4 °F 66.7 °F 50% 29.77 in 10.0 mi Calm Calm - N/A   Clear
2:35 PM 86.7 °F 88.4 °F 64.6 °F 48% 29.76 in 10.0 mi Calm Calm - N/A   Scattered Clouds
2:55 PM 88.5 °F 90.1 °F 64.6 °F 45% 29.76 in 10.0 mi West 3.5 mph - N/A   Scattered Clouds
3:15 PM 86.9 °F 88.6 °F 64.8 °F 48% 29.75 in 10.0 mi Calm Calm - N/A   Scattered Clouds
3:35 PM 86.0 °F 87.9 °F 65.3 °F 50% 29.75 in 10.0 mi Calm Calm - N/A   Clear
3:55 PM 86.7 °F 89.6 °F 67.3 °F 52% 29.75 in 10.0 mi North 4.6 mph - N/A   Mostly Cloudy
4:15 PM 85.5 °F 87.4 °F 65.3 °F 51% 29.75 in 10.0 mi Calm Calm - N/A   Mostly Cloudy
4:35 PM 87.3 °F 88.3 °F 63.3 °F 45% 29.75 in 10.0 mi Calm Calm - N/A   Overcast
4:55 PM 88.0 °F 88.7 °F 63.1 °F 43% 29.75 in 10.0 mi Calm Calm - N/A   Mostly Cloudy
5:15 PM 87.3 °F 87.7 °F 62.2 °F 43% 29.75 in 10.0 mi Calm Calm - N/A   Scattered Clouds
5:35 PM 86.7 °F 86.8 °F 61.3 °F 42% 29.76 in 10.0 mi WNW 3.5 mph - N/A   Scattered Clouds
5:55 PM 85.5 °F 85.2 °F 59.9 °F 42% 29.76 in 10.0 mi Calm Calm - N/A   Mostly Cloudy
6:15 PM 85.3 °F 85.4 °F 61.3 °F 44% 29.76 in 10.0 mi Calm Calm - N/A   Scattered Clouds
6:35 PM 84.7 °F 85.4 °F 62.2 °F 47% 29.76 in 10.0 mi Calm Calm - N/A   Mostly Cloudy
6:55 PM 80.6 °F 82.3 °F 64.6 °F 58% 29.76 in 10.0 mi Calm Calm - N/A   Scattered Clouds
7:15 PM 78.1 °F - 64.6 °F 63% 29.77 in 10.0 mi Calm Calm - N/A   Clear
7:35 PM 76.1 °F - 65.8 °F 70% 29.77 in 10.0 mi Calm Calm - N/A   Clear
7:55 PM 75.4 °F - 65.3 °F 71% 29.78 in 10.0 mi Calm Calm - N/A   Clear
8:15 PM 73.6 °F - 65.7 °F 76% 29.79 in 10.0 mi Calm Calm - N/A   Clear
8:35 PM 73.6 °F - 65.3 °F 75% 29.80 in 10.0 mi Calm Calm - N/A   Clear
8:55 PM 72.0 °F - 65.7 °F 80% 29.80 in 10.0 mi Calm Calm - N/A   Clear
9:15 PM 70.7 °F - 65.7 °F 84% 29.81 in 10.0 mi Calm Calm - N/A   Clear
9:35 PM 70.2 °F - 65.5 °F 85% 29.82 in 10.0 mi Calm Calm - N/A   Clear
9:55 PM 69.4 °F - 65.3 °F 87% 29.82 in 10.0 mi Calm Calm - N/A   Scattered Clouds
10:15 PM 73.0 °F - 63.7 °F 72% 29.83 in 10.0 mi North 4.6 mph - N/A   Scattered Clouds
10:35 PM 74.5 °F - 62.1 °F 65% 29.83 in 10.0 mi North 4.6 mph - N/A   Clear
10:55 PM 74.1 °F - 61.7 °F 65% 29.83 in 10.0 mi North 4.6 mph - N/A   Clear
11:15 PM 73.6 °F - 61.2 °F 65% 29.83 in 10.0 mi NNE 3.5 mph - N/A   Clear
11:35 PM 72.5 °F - 61.0 °F 67% 29.83 in 10.0 mi NNE 3.5 mph - N/A   Clear
11:55 PM 72.0 °F - 60.8 °F 68% 29.83 in 10.0 mi North 3.5 mph - N/A   Clear